{"data":{"norad_id":60120,"epoch":"2026-09-21T11:13:49.410336Z","epoch_age_seconds":98606,"freshness":"FRESH","line1":"1 60120U 24118H   26264.46793299 -.00000953  00000+0 -30162-5 0  9999","line2":"2 60120  53.1600 336.0609 0001003  81.0322 279.0810 15.69694099128740","mean_motion":15.69694099,"eccentricity":0.0001003,"inclination_deg":53.16,"raan_deg":336.0609,"arg_perigee_deg":81.0322,"mean_anomaly_deg":279.081,"bstar":-3.0162e-6,"rev_number":12874,"period_min":91.737619509265,"perigee_km":359.0964410812,"apogee_km":360.44806567743,"semimajor_km":6737.9092533793,"source":"CELESTRAK","updated_at":"2026-09-22T09:00:49.155925Z"}}